Yunhai-2 05 xing

operational
NORAD ID: 43913 Int'l Des: 2018-112 Owner: CASC Country: CN
LEOCIRCULAR

About Yunhai-2 05 xing

Description loading...

Live Position

Loading 3D Globe...

Upcoming Passes

Altitude History

Altitude vs Time

uPlot chart will show altitude changes over time

Two-Line Element Set

1 43913U 18112E 26020.31460222 .00000350 00000-0 20098-3 0 9993
2 43913 50.0093 74.4418 0005386 207.3749 152.6884 14.28934302368019
Epoch: Jan 20, 2026 • Age: 11 hours

Current Status

Altitude 795.8 km
Velocity 7.46 km/s
Sub-Earth Point -17.39°S, 131°W
Launch Date Dec 29, 2018
Age 7 years
Type other

Technical Details

Classification Payload
Mass 100.00 kg
Dry Mass 100.00 kg
Total Mass 100.00 kg
Length 0.50 m
Diameter 0.20 m
Span 1.00 m
Shape Box + 2 pan
Manufacturer DFHS
Bus Type YH-2
Phase Status In Orbit
Owner/State CASC/CN

Large Constellations

Loading constellations...